Florida Pigeon Derby - 48 MILES W ATLANTIC

Station: 48 Miles - T Race

Distance: 48 Miles

Release: 14-Jan-2022 07:45

Weather Release:    Arrival:

Wind at Release:     Wind at Arrival:

Temp at Release: °    Temp at Arrival: °

Lofts: 377

Birds: 1990

Clocked: 1977

Good Luck to Everyone!
Drops Pos Breeder Pigeon Name Color Sex Ent Arrival Speed To Win Elg PdStar
1 Jojos International - TX 6202-AU21-JOJO BC C 1 08:41:52.20 1485.493 00:00:00 Yes
2 Cardenas Loft - FL 1316-AU21-HRPC BB C 1 08:41:53.10 1485.102 00:00:01 Yes
3 Dac Family Loft & Carlito El Animal - FL 0069-AU21-DAC BB H 1 08:41:53.24 1485.041 00:00:01 Yes
4 Juan Ganga - FL 0780-AU21-ALON DC H 1 08:41:53.55 1484.906 00:00:01 Yes
5 Tejeda Lofts - FL 54647-AU21-ARPU BB C 1 08:41:54.50 1484.493 00:00:02 Yes
6 Ed Skwiat - IN 18032-AU21-JEDD BB C 1 08:41:55.07 1484.245 00:00:03 Yes
7 Toto Loft - FL 54519-AU21-ARPU CHOC H 1 08:41:56.35 1483.689 00:00:04 Yes
8 Benavides Loft - FL 0573-AU21-BFL La kadet BB H 1 08:41:59.64 1482.261 00:00:07 Yes
9 Royal Ranch Loft - FL 18824-AU21-AA BC H 1 08:41:59.92 1482.140 00:00:08 Yes
10 TailwindonHwy29 - TX 84304-AU21-ARPU Just One More BB H 1 08:42:00.32 1481.967 00:00:08 Yes
11 Rqk Loft - FL 1347-AU21-NAPL BB C 1 08:42:00.97 1481.685 00:00:09 Yes
12 Ron Talbot /Jimmy Fernandez - LA 4303-AU21-AA BB H 1 08:42:01.14 1481.611 00:00:09 Yes
13 Los Tiburones De Colon - FL 0302-AU21-SUNS BB C 1 08:42:03.50 1480.590 00:00:11 Yes
14 Ruiz & D' Los Cayos Loft - FL 10995-AU21-FOYS SPLA H 1 08:42:04.12 1480.322 00:00:12 Yes
15 Baldat And Son Loft Llc - FL 0308-AU21-BCC BB C 1 08:42:04.13 1480.318 00:00:12 Yes
16 Ranger Loft - FL 4191-AU21-HRPC BC H 1 08:42:04.23 1480.274 00:00:12 Yes
17 Bore Tech Loft - FL 17362-AU21-ARPU GRIZ H 1 08:42:04.90 1479.985 00:00:13 Yes
18 A P C Loft - TX 0306-AU21-APC BBWF H 1 08:42:05.54 1479.708 00:00:13 Yes
19 Dmv Loft - FL 0016-AU21-DMV Martinez16 BBWF H 1 08:42:06.29 1479.384 00:00:14 Yes
20 Kelly Loft - FL 0035-AU21-KELL BC H 1 08:42:06.81 1479.160 00:00:15 Yes
21 Adc Loft.Barbaro,rg Loft.Yonimiller Loft - FL 77891-AU21-ARPU GRIZ H 1 08:42:07.37 1478.918 00:00:15 Yes
22 JuliettaFamilyLoft - FL 0193-AU21-ARPU BC H 1 08:42:08.32 1478.508 00:00:16 Yes
23 The Chosen Few - MI 0293-AU21-MNY 23 x 1141 BB C 1 08:42:08.99 1478.220 00:00:17 Yes
24 Andrew E. Skwiat - IN 0220-AU21-ANDY BB H 1 08:42:09.81 1477.866 00:00:18 Yes
25 Tepa sindicato - CA 0492-AU21-SG BB H 1 08:42:10.51 1477.565 00:00:18 Yes
26 Vasallo Santos & Domingo Family Loft - FL 46295-AU21-JEDD BC C 1 08:42:11.35 1477.203 00:00:19 Yes
27 7 Magnificos Loft - FL 3672-AU21-ARPU SILV H 1 08:42:11.44 1477.164 00:00:19 Yes
28 Los Tizaa Loft - FL 15389-AU21-AA BC H 1 08:42:11.90 1476.966 00:00:20 Yes
29 D B J Loft - FL 2267-AU21-DBJ BC H 1 08:42:12.80 1476.579 00:00:21 Yes
30 Evolucion Roly Loft - FL 0023-AU21-ROLY BB C 1 08:42:12.81 1476.575 00:00:21 Yes
31 Rudy loft - FL 0155-AU21-CKLO RUDY 55 SPLA H 1 08:42:13.13 1476.437 00:00:21 Yes
32 Platinium Loft - FL 0909-AU21-SUNS BB H 1 08:42:14.06 1476.037 00:00:22 Yes
33 Eagle & Falcon Loft - FL 0020-AU21-YOAN SPLA H 1 08:42:14.50 1475.848 00:00:22 Yes
34 GreatWall - MS 0895-AU21-JIMM BBWF H 1 08:42:15.88 1475.255 00:00:24 Yes
35 Rey Rivera Loft & Rrrr - FL 0157-AU21-LIMO BC H 1 08:42:17.59 1474.521 00:00:25 Yes
36 Noel And Bravo Loft - FL 0084-AU21-BRAV BC H 1 08:42:17.91 1474.384 00:00:26 Yes
37 Ab Jorge - TN 0355-AU21-CACO BC H 1 08:42:18.26 1474.234 00:00:26 Yes
38 8 ge liu s loft - MO 0565-AU21-BAIZ BC H 1 08:42:18.27 1474.230 00:00:26 Yes
39 A-T E A M - FL 54688-AU21-ARPU Small Rossi 88 BB H 1 08:42:19.81 1473.570 00:00:28 Yes
40 Evolucion Roly Loft - FL 1199-AU21-IPBB GRIZ C 2 08:42:20.38 1473.326 00:00:28 Yes
41 Dmv Loft - FL 0017-AU21-DMV Martinez17 DC H 2 08:42:20.78 1473.154 00:00:29 Yes
42 Continental Breeding Station Loft - FL 0846-AU21-CBS DC H 1 08:42:21.02 1473.052 00:00:29 Yes
43 33 Miami Storm Loft - FL 21275-AU21-FCC Mystery BB H 1 08:42:21.21 1472.970 00:00:29 Yes
44 Crestview Loft 2 - TX 21711-AU21-CRES DC C 1 08:42:21.32 1472.923 00:00:29 Yes
45 8ge - PA 2199-AU21-ERIE BC H 1 08:42:21.43 1472.876 00:00:29 Yes
46 Tiler Loft - TX 7582-AU21-ARPU BCWF H 1 08:42:21.44 1472.872 00:00:29 Yes
47 Aparicio Loft - FL 23381-AU21-ARPU BBWF H 1 08:42:21.66 1472.778 00:00:29 Yes
48 Ojibwe Loft - OK 0407-AU21-OJIB BC H 1 08:42:23.32 1472.068 00:00:31 Yes
49 Ramos Brothers Loft - FL 55381-AU21-ARPU BBWF H 1 08:42:23.52 1471.982 00:00:31 Yes
50 Chino Vazquez Loft - FL 35008-AU21-JEDD BB H 1 08:42:24.45 1471.585 00:00:32 Yes
51 Ace Imperial Loft - NY 0998-AU21-SQC BB C 1 08:42:24.58 1471.529 00:00:32 Yes
52 Lian Loft Vladimir 59 Perez - FL 2265-AU21-LIAN Bebecita BB H 1 08:42:26.48 1470.718 00:00:34 Yes
53 LCJ Loft - AL 19221-AU21-AA ROJO C 1 08:42:27.10 1470.453 00:00:35 Yes
54 Eagle & Falcon Loft - FL 100267-AU21-ARPU BLWF H 2 08:42:27.62 1470.232 00:00:35 Yes
55 Yandry El Tiburon - FL 4033-AU21-VITA BC H 1 08:42:27.82 1470.146 00:00:36 Yes
56 Bore Tech Loft - FL 0335-AU21-SUNS BB H 2 08:42:28.77 1469.741 00:00:37 Yes
57 El Curro & Titico Loft - FL 15088-AU21-AA BC H 1 08:42:29.02 1469.635 00:00:37 Yes
58 Sandoca Loft - FL 15240-AU21-ARPU Abraham BC C 1 08:42:31.24 1468.690 00:00:39 Yes
59 A.V Team Loft - FL 0198-AU21-DTEA BB H 1 08:42:32.73 1468.056 00:00:41 Yes
60 M J C Family Loft - NC 6480-AU21-FOYS BB C 1 08:42:33.35 1467.792 00:00:41 Yes
61 Omelio Perez Loft - NL 14723-AU21-FOYS BB C 1 08:42:33.59 1467.690 00:00:41 Yes
62 Dac Family Loft & Carlito El Animal - FL 0095-AU21-DAC BB H 2 08:42:34.31 1467.384 00:00:42 Yes
63 LCJ Loft - AL 19220-AU21-AA BALL C 2 08:42:35.95 1466.688 00:00:44 Yes
64 7 Magnificos Loft - FL 3699-AU21-ARPU SILV C 2 08:42:36.58 1466.421 00:00:44 Yes
65 Jiang-Tou-Loft - TN 48431-AU21-ARPU BB H 1 08:42:36.96 1466.259 00:00:45 Yes
66 Brooklyn Loft - NY 0868-AU21-JRC BBWF H 1 08:42:38.08 1465.784 00:00:46 Yes
67 Ranger Loft - FL 16856-AU21-AA BBWF C 2 08:42:38.30 1465.691 00:00:46 Yes
68 Los Tiburones De Colon - FL 0318-AU21-SUNS BB H 2 08:42:38.52 1465.598 00:00:46 Yes
69 YENDEZ LOFT - TX 0744-AU21-YEND YENDEZ 744 BB H 1 08:42:38.86 1465.454 00:00:47 Yes
70 PNWC - ID 0061-AU21-PNWC “PAIR #20” BB C 1 08:42:39.34 1465.251 00:00:47 Yes
71 Sandoca Loft - FL 15239-AU21-ARPU Princesa BC H 2 08:42:39.45 1465.204 00:00:47 Yes
72 Roby Family Loft - FL 0545-AU21-ROBY 5210 MAGIC x 1080 ROBY BC H 1 08:42:39.47 1465.196 00:00:47 Yes
73 Chen Loft - PA 0659-AU21-TFC Super King / Chens Girl BB H 1 08:42:39.78 1465.064 00:00:48 Yes
74 Grace Lofts - FL 3241-AU21-JEDD BC C 1 08:42:41.24 1464.446 00:00:49 Yes
75 The Rios Family Loft - NC 0079-AU21-CKLO CHARLOTTE 79 BC C 1 08:42:41.79 1464.214 00:00:50 Yes
76 Noriega Loft 3 - FL 0400-AU21-GHC BB H 1 08:42:42.32 1463.989 00:00:50 Yes
77 Discovery Team - FL 0032-AU21-DTEA SILV H 1 08:42:42.78 1463.795 00:00:51 Yes
78 Carlos Carwash Loft - FL 2275-AU21-SUNS BB H 1 08:42:43.47 1463.503 00:00:51 Yes
79 Fl Lin Loft - FL 48531-AU21-ARPU BB C 1 08:42:43.81 1463.360 00:00:52 Yes
80 Aaron Loft - FL 2272-AU21-SUNC BC H 1 08:42:46.02 1462.427 00:00:54 Yes
81 La Quinta Loft - FL 0197-AU21-PRP DCHW H 1 08:42:46.79 1462.102 00:00:55 Yes
82 Jax Zhao Loft - FL 30137-AU21-AA SPLA H 1 08:42:46.90 1462.055 00:00:55 Yes
83 Robert Leon Loft - FL 1444-AU21-RLL BBWF H 1 08:42:47.03 1462.001 00:00:55 Yes
84 Arrastia Loft - FL 14509-AU21-ARPU BC H 1 08:42:47.14 1461.954 00:00:55 Yes
85 Sagua Finish - FL 15393-AU21-AA SILV C 1 08:42:47.74 1461.701 00:00:56 Yes
86 GreatWall - MS 15478-AU21-TONY BCWF C 2 08:42:48.54 1461.364 00:00:56 Yes
87 Quesada.Famili Loft - FL 4147-AU21-JEDD BB H 1 08:42:48.98 1461.179 00:00:57 Yes
88 A-Lo-Loft - NY 0950-AU21-TOUL ☯️☯️☯️☯️ BC C 1 08:42:49.31 1461.040 00:00:57 Yes
89 I R R Loft - FL 17911-AU21-AA BB H 1 08:42:50.50 1460.539 00:00:58 Yes
90 Armando Vazquez Loft - FL 1671-AU21-HRPB BB H 1 08:42:51.37 1460.173 00:00:59 Yes
91 Dac Family Loft & Carlito El Animal - FL 46343-AU21-JEDD BB H 3 08:42:52.82 1459.563 00:01:01 Yes
92 Omelio Perez Loft - NL 72595-AU21-ARPU BB H 2 08:42:53.63 1459.223 00:01:01 Yes
93 El Messi Y Yordy Family Loft - FL 20276-AU21-AA BC C 1 08:42:53.91 1459.105 00:01:02 Yes
94 La Quinta Loft - FL 17045-AU21-ARPU BB H 2 08:42:54.24 1458.967 00:01:02 Yes
95 D G F Loft - UT 0148-AU21-UVI 2233/135 BB C 1 08:42:54.33 1458.929 00:01:02 Yes
96 Kelly Loft - FL 0040-AU21-KELL BB H 2 08:42:54.59 1458.820 00:01:02 Yes
97 Aztec Loft - DE 0078-AU21-AZTE Jelle 911 BBWF H 1 08:42:56.05 1458.207 00:01:04 Yes
98 Tamayos Loft - FL 20448-AU21-ARPU BC C 1 08:42:56.73 1457.922 00:01:05 Yes
99 A P C Loft - TX 0319-AU21-APC BB H 2 08:42:57.68 1457.523 00:01:05 Yes
100 Shi Loft - PA 2079-AU21-ERIE BB H 1 08:42:57.85 1457.452 00:01:06 Yes

There are 1977 bird records

Note: These Race Results are unofficial and subject to change until verified by the Race Committee and declared final.